User: anonymous   Login
Location: Walnut Point State Park
(39.6958°N, 88.0345°W)
Time: 15:47:19
(UTC-05:00)
Language:

Iridium 75 - Orbit

View from above orbital plane
View from above orbital plane
View from above satellite
View from above satellite

Ground track
Ground track

The orbit data is extracted from the following two-line orbital elements,

1 25346U 98032E   17084.89732011 -.00000036 +00000-0 -19758-4 0  9998
2 25346 086.3927 258.9110 0001975 088.0059 272.1363 14.34214076987465
Epoch (UTC): 25 March 2017 21:32:08
Eccentricity: 0.0001975
inclination: 86.3927°
perigee height: 776 km
apogee height: 779 km
right ascension of ascending node: 258.9110°
argument of perigee: 88.0059°
revolutions per day: 14.34214076
mean anomaly at epoch: 272.1363°
orbit number at epoch: 98746

The dashed part of the orbit path shows where the satellite is in the earth's shadow,  

DLR